This demonstration page uses our WeatherBlox Daily Observations layout. Learn more.

Left ArrowRight Arrow

44.31136, -96.79839

Hourly Observations for August 7, 2022

Temp ( °F °C ) Dew Point ( °F °C ) Humidity (%) Winds ( mph kmh ) Pressure ( in mb ) Visibility ( mi km ) Precip ( " mm )
12:56 am 00:56 Cloudy 63 17.2 58 14.4 84 84 NNE 7 11 30.08 1019 10 16 0.00 0.00
1:56 am 01:56 Cloudy 62 16.7 57 13.9 84 84 NNE 9 15 30.07 1018 10 16 0.00 0.00
2:56 am 02:56 Cloudy 62 16.7 58 14.4 86 86 N 7 11 30.06 1018 10 16 0.00 0.00
3:56 am 03:56 Cloudy 62 16.7 57 13.9 84 84 VRB 7 11 30.08 1019 10 16 0.00 0.00
4:56 am 04:56 Cloudy 61 16.1 58 14.4 90 90 NE 8 13 30.08 1019 10 16 0.00 0.00
5:56 am 05:56 Mostly Cloudy 60 15.6 58 14.4 93 93 NE 10 17 30.08 1019 10 16 0.00 0.00
6:56 am 06:56 Cloudy with Light Rain 60 15.6 60 15.6 100 100 ENE 7 11 30.09 1019 10 16 0.00 0.00
7:25 am 07:25 Cloudy with Rain 61 16 61 16 100 100 NE 8 13 30.03 1017 10 16 0.02 0.51
7:56 am 07:56 Cloudy with Light Rain 59 15 59 15 100 100 NNE 7 11 30.07 1018 10 16 0.05 1.27
8:35 am 08:35 Cloudy with Light Rain 61 16 61 16 100 100 NNE 8 13 30.02 1017 10 16 0.01 0.25
8:56 am 08:56 Cloudy 61 16.1 61 16.1 100 100 NE 8 13 30.09 1019 10 16 0.01 0.25
9:56 am 09:56 Cloudy 62 16.7 62 16.7 100 100 N 7 11 30.10 1019 10 16 0.00 0.00
10:16 am 10:16 Cloudy 63 17 63 17 100 100 N 8 13 30.04 1017 10 16 0.00 0.00
10:56 am 10:56 Cloudy 64 17.8 62 16.7 93 93 NE 9 15 30.09 1019 10 16 0.00 0.00
11:42 am 11:42 Mostly Cloudy 70 21 61 16 73 73 NE 9 15 30.00 1016 10 16 0.00 0.00
11:53 am 11:53 Mostly Cloudy 70 21 61 16 73 73 NNE 6 9 30.01 1016 10 16 0.00 0.00
11:56 am 11:56 Mostly Cloudy 69 20.6 61 16.1 76 76 N 7 11 30.09 1019 10 16 0.00 0.00
12:56 pm 12:56 Cloudy 70 21.1 61 16.1 73 73 NE 9 15 30.06 1018 10 16 0.00 0.00
1:25 pm 13:25 Cloudy 70 21 63 17 78 78 NE 5 7 29.99 1016 10 16 0.00 0.00
1:41 pm 13:41 Cloudy 68 20 63 17 83 83 N 10 17 30.02 1017 10 16 0.00 0.00
1:56 pm 13:56 Cloudy 68 20 63 17.2 84 84 NNW 10 17 30.10 1019 10 16 0.00 0.00
2:24 pm 14:24 Cloudy 66 19 63 17 88 88 N 13 20 30.02 1017 10 16 0.00 0.00
2:56 pm 14:56 Cloudy 67 19.4 61 16.1 81 81 NNE 10 17 30.09 1019 10 16 0.00 0.00
3:56 pm 15:56 Cloudy 67 19.4 62 16.7 84 84 NNE 9 15 30.09 1019 10 16 0.00 0.00
4:56 pm 16:56 Cloudy 67 19.4 60 15.6 79 79 N 10 17 30.09 1019 10 16 0.00 0.00
5:56 pm 17:56 Cloudy with Light Rain 62 16.7 62 16.7 100 100 ENE 7 11 30.09 1019 10 16 0.00 0.00
6:30 pm 18:30 Cloudy with Heavy Rain 63 17 63 17 100 100 NNW 9 15 30.05 1018 3 5 0.12 3.05
6:43 pm 18:43 Cloudy with Rain 63 17 63 17 100 100 NNW 8 13 30.05 1018 3 5 0.15 3.81
6:53 pm 18:53 Cloudy with Light Rain 63 17 63 17 100 100 N 10 17 30.04 1017 5 8 0.20 5.08
6:56 pm 18:56 Cloudy with Light Rain 62 16.7 62 16.7 100 100 N 7 11 30.11 1020 6 10 0.20 5.08
7:22 pm 19:22 Cloudy 61 16 61 16 100 100 N 13 20 30.06 1018 10 16 0.00 0.00
7:42 pm 19:42 Cloudy with Light Rain 61 16 61 16 100 100 N 10 17 30.06 1018 9 14 0.05 1.27
7:50 pm 19:50 Cloudy with Light Rain 61 16 61 16 100 100 N 10 17 30.06 1018 10 16 0.05 1.27
7:56 pm 19:56 Cloudy with Light Rain 60 15.6 60 15.6 100 100 NNE 9 15 30.12 1020 10 16 0.05 1.27
8:03 pm 20:03 Cloudy with Light Rain 61 16 61 16 100 100 N 8 13 30.06 1018 10 16 0.01 0.25
8:56 pm 20:56 Cloudy 60 15.6 60 15.6 100 100 N 7 11 30.13 1020 10 16 0.01 0.25
9:08 pm 21:08 Cloudy 59 15 59 15 100 100 N 7 11 30.08 1019 10 16 0.00 0.00
9:56 pm 21:56 Mostly Cloudy 58 14.4 58 14.4 100 100 N 5 7 30.14 1021 10 16 0.00 0.00
10:56 pm 22:56 Partly Cloudy 58 14.4 58 14.4 100 100 NNW 8 13 30.16 1021 10 16 0.00 0.00
11:56 pm 23:56 Clear 55 12.8 55 12.8 100 100 Calm 30.15 1021 10 16 0.00 0.00

Powered by AerisWeather